Skip Page Navigation
NASA JPL Caltech
NASA Logo - Jet Propulsion Laboratory + View the NASA Portal
+ Center for Near-Earth Object Studies
JPL Home Earth Solar System Stars & Galaxies Technology
JPL Solar System Dynamics
BODIES ORBITS EPHEMERIDES TOOLS PHYSICAL DATA DISCOVERY FAQ SITE MAP
IMPORTANT: The SSD Announcement email list is now available. Major changes are coming in the near future, including possible hostname and/or URL changes. To be notified of such changes, subscribe to this email list.

Please visit this page for more details.


JPL Small-Body Database Browser
Search: [ help ]  
117719 (2005 GL7)
Classification: Main-belt Asteroid          SPK-ID: 2117719
Ephemeris | Orbit Diagram | Orbital Elements | Mission Design | Physical Parameters | Discovery Circumstances ]

[ show orbit diagram ]
Orbital Elements at Epoch 2458600.5 (2019-Apr-27.0) TDB
Reference: JPL 19 (heliocentric ecliptic J2000)
 Element Value Uncertainty (1-sigma)   Units 
e .09241222016571822 3.4774e-08  
a 2.245981955972568 1.0905e-08 au
q 2.038425776969 7.463e-08 au
i 6.90578816591706 4.9641e-06 deg
node 135.1356872816538 3.2917e-05 deg
peri 108.5215653336963 4.66e-05 deg
M 30.53157401831304 3.124e-05 deg
tp 2458496.231166534530
(2019-Jan-12.73116653)
0.00010668 TDB
period 1229.441365356872
3.37
8.954e-06
2.451e-08
d
yr
n .2928159163536052 2.1326e-09 deg/d
Q 2.453538134976135 1.1913e-08 au
  Orbit Determination Parameters
   # obs. used (total)      687  
   data-arc span      7913 days (21.66 yr)  
   first obs. used      1998-03-04  
   last obs. used      2019-11-02  
   planetary ephem.      DE431  
   SB-pert. ephem.      SB431-N16  
   condition code      0  
   norm. resid. RMS      .63208  
   source      ORB  
   producer      Otto Matic  
   solution date      2019-Dec-04 11:02:34  

Additional Information
 Earth MOID = 1.03724 au 
 Jupiter MOID = 2.57031 au 
 T_jup = 3.616 
[ show covariance matrix ]

Ephemeris | Orbit Diagram | Orbital Elements | Mission Design | Physical Parameters | Discovery Circumstances ]

Physical Parameter Table
Parameter Symbol Value Units Sigma Reference Notes
absolute magnitude H 16.1   n/a MPO338088  

117719 (2005 GL7)          Discovered 2005-Apr-01 by LONEOS at Anderson Mesa
Reference: 20051019/Numbers.arcLast Updated: 2005-10-26

Alternate Designations
 2005 GL7 = 1998 FS81 = 1999 RU224 = 2000 YO89 
Ephemeris | Orbit Diagram | Orbital Elements | Mission Design | Physical Parameters | Discovery Circumstances ]
ABOUT SSD CREDITS/AWARDS PRIVACY/COPYRIGHT GLOSSARY LINKS
FirstGov 2019-Dec-13 11:03 UT
(server date/time)  
NASA Home Page
Site Manager:   Ryan S. Park
Webmaster  Alan B. Chamberlin